Home > Weather > Ra'anana > Past weeks

Flag for Israel Weather for the Past 2 Weeks in Ra'anana, Israel

Now
63 °F

Sunny.


Feels Like: 63 °F
Forecast: 56 / 69 °F
Wind: 7 mph from Southwest

Location: Dov Airport

Current Time: Feb 13, 2016 at 2:05:07 PM

Latest Report: Feb 13, 2016 at 12:50 PM


Visibility: 10 mi

Pressure: 30.07 "Hg

Humidity: 68%

Dew point: 52 °F

Location of Ra'ananaLocation

Historic Weather in Ra'anana — Graph

°F

Ra'anana Temperature Yesterday

Maximum temperature yesterday: 64 °F (at 12:50 PM)
Minimum temperature yesterday: 50 °F (at 5:50 AM)
Average temperature yesterday: 60 °F

High & Low Weather Summary for the Past Weeks

 TemperatureHumidityPressure
High75 °F (Feb 4, 12:50 PM)94% (Feb 8, 6:50 AM)30.39 "Hg (Feb 8, 6:50 AM)
Low45 °F (Jan 30, 6:00 AM)22% (Feb 4, 12:50 PM)29.89 "Hg (Feb 7, 5:50 AM)
Average58 °F66%30.15 "Hg
* Reported Jan 29 12:50 PM — Feb 13 12:50 PM, Ra'anana, Weather by CustomWeather, © 2016

Note: Actual official high and low records may vary slightly from our data, if they occured in-between our weather recording intervals... More about our weather records

Advertising

Ra'anana Weather History for the Previous 24 Hours

 ConditionsComfort  
Time TempWeatherWind HumidityBarometerVisibility
12:50 PM
Sat, Feb 13
63 °FSunny.7 mph68%30.07 "Hg10 mi
11:50 AM63 °FSunny.8 mph68%30.09 "Hg10 mi
10:50 AM63 °FSunny.3 mph64%30.09 "Hg10 mi
9:50 AM61 °FSunny.5 mph63%30.12 "Hg10 mi
8:50 AM59 °FSunny.3 mph63%30.12 "Hg10 mi
7:50 AM55 °FSunny.2 mph77%30.12 "Hg10 mi
6:50 AM52 °FSunny.3 mph77%30.12 "Hg10 mi
6:00 AM52 °FClear.1 mph82%30.12 "Hg10 mi
9:50 PM
Fri, Feb 12
59 °FClear.5 mph68%30.18 "Hg10 mi
8:50 PM61 °FClear.6 mph68%30.21 "Hg10 mi
7:50 PM61 °FClear.3 mph68%30.18 "Hg10 mi
6:50 PM61 °FClear.3 mph68%30.18 "Hg10 mi
5:50 PM61 °FClear.5 mph63%30.18 "Hg10 mi
4:50 PM63 °FSunny.7 mph64%30.18 "Hg10 mi
3:50 PM64 °FSunny.7 mph60%30.18 "Hg10 mi
2:50 PM64 °FSunny.8 mph60%30.18 "Hg10 mi
Weather by CustomWeather, © 2016

See weather overviewHow to use our weather pages